Location: Antichan
(42.9728°N, 0.6667°E)
Time: 10:14:17
(UTC+00:00)

Cosmos 1862 Rocket - Pass Details

Date: 15 August 2020
Orbit: 603 x 635 km, 82.5° (Epoch: 18 September)

Event Time Altitude Azimuth Distance (km) Brightness Sun altitude
Rises 20:15:50 0° 352° (N) 2,925 7.7 -13.4°
Reaches altitude 10° 20:18:06 10° 354° (N) 2,009 6.7 -13.7°
Maximum altitude 20:22:33 79° 81° (E) 638 3.5 -14.4°
Enters shadow 20:26:00 16° 168° (SSE) 1,603 5.2 -14.9°
